Date,TemperatureHighF,TemperatureAvgF,TemperatureLowF,DewpointHighF,DewpointAvgF,DewpointLowF,HumidityHigh,HumidityAvg,HumidityLow,PressureMaxIn,PressureMinIn,WindSpeedMaxMPH,WindSpeedAvgMPH,GustSpeedMaxMPH,PrecipitationSumIn
2013-1-1,23,21,19,16,13,11,87,72,63,0.00,40.00,10,7,0,0.00
2013-1-2,24,22,20,18,17,13,82,79,72,0.00,40.00,7,4,0,0.00
2013-1-3,29,27,24,24,21,20,86,80,73,0.00,40.00,9,6,0,0.00
2013-1-4,28,26,25,23,21,20,86,80,78,0.00,40.00,13,11,0,0.00
2013-1-5,33,30,21,29,24,20,93,80,72,0.00,40.00,8,3,0,0.00
2013-1-6,35,32,29,32,26,22,88,79,72,0.00,40.00,14,7,0,0.00
2013-1-7,40,33,25,28,23,18,77,67,52,0.00,40.00,14,10,0,0.00
2013-1-8,43,37,31,30,28,27,83,71,57,0.00,40.00,12,5,0,0.00
2013-1-9,39,37,34,29,27,25,68,67,65,0.00,40.00,13,10,0,0.00
2013-1-10,42,35,26,27,25,24,90,68,49,0.00,40.00,8,4,0,0.00
2013-1-11,44,38,36,42,34,26,95,85,64,0.00,40.00,9,6,0,0.00
2013-1-12,53,45,36,45,35,29,84,68,54,0.00,40.00,17,10,0,0.00
2013-1-13,34,30,27,29,27,23,91,86,81,0.00,40.00,8,3,0,0.00
2013-1-14,25,22,20,19,15,13,83,77,69,0.00,40.00,10,7,0,0.00
2013-1-15,26,22,16,18,14,10,79,71,63,0.00,40.00,11,7,0,0.00
2013-1-16,30,26,21,28,21,17,95,82,76,0.00,40.00,11,8,0,0.00
2013-1-17,26,18,15,17,11,4,90,73,60,0.00,40.00,14,8,0,0.00
2013-1-18,33,19,11,27,12,3,84,73,59,0.00,40.00,11,7,0,0.00
2013-1-19,39,37,33,35,32,29,92,84,74,0.00,40.00,13,7,0,0.02
2013-1-20,31,18,14,27,13,4,88,81,65,0.00,40.00,16,12,0,0.00
2013-1-21,13,8,2,11,4,-2,91,82,75,0.00,40.00,12,8,0,0.00
2013-1-22,5,3,0,1,-2,-5,83,80,77,0.00,40.00,10,9,0,0.00
2013-1-23,13,9,5,9,4,1,85,79,74,0.00,40.00,8,6,0,0.00
2013-1-24,18,9,2,7,2,-1,87,74,60,0.00,40.00,3,1,0,0.00
2013-1-25,18,14,8,15,10,0,91,84,66,0.00,40.00,9,4,0,0.00
2013-1-26,27,22,18,16,16,15,92,76,64,0.00,40.00,7,2,0,0.00
2013-1-27,30,25,18,26,20,15,96,81,61,0.00,40.00,7,4,0,0.00
2013-1-28,33,30,26,33,30,25,98,98,97,0.00,40.00,6,3,0,0.01
2013-1-29,50,43,31,49,42,30,96,94,92,0.00,40.00,6,4,0,0.01
2013-1-30,36,33,27,35,32,25,98,96,91,0.00,40.00,16,8,0,0.00
2013-1-31,22,18,16,19,16,13,92,89,86,0.00,40.00,15,13,0,0.00
2013-2-1,16,14,10,11,8,5,83,77,65,0.00,40.00,15,10,0,0.00
2013-2-2,19,13,10,10,5,2,83,71,60,0.00,40.00,5,2,0,0.00
2013-2-3,16,13,9,10,6,3,77,72,62,0.00,40.00,10,6,0,0.00
2013-2-4,17,15,13,6,4,3,69,63,55,0.00,40.00,10,5,0,0.00
2013-2-5,23,13,2,19,8,-2,86,81,76,0.00,40.00,11,5,0,0.00
2013-2-6,27,21,16,19,12,9,80,66,57,0.00,40.00,14,5,0,0.00
2013-2-7,28,26,23,27,24,23,96,93,87,0.00,40.00,4,3,0,0.00
2013-2-8,27,22,18,22,19,15,96,86,72,0.00,40.00,11,6,0,0.00
2013-2-9,31,12,-2,15,5,-5,90,77,52,0.00,40.00,6,2,0,0.00
2013-2-10,35,29,16,32,22,13,88,76,66,0.00,40.00,12,8,0,0.00
2013-2-11,40,35,32,35,32,26,94,86,79,0.00,40.00,12,10,0,0.00
2013-2-12,30,27,25,21,20,18,78,74,68,0.00,40.00,12,9,0,0.00
2013-2-13,37,30,24,28,24,19,81,76,65,0.00,40.00,9,6,0,0.00
2013-2-14,34,31,26,32,29,24,96,91,84,0.00,40.00,9,2,0,0.00
2013-2-15,24,21,19,19,16,13,92,80,73,0.00,40.00,10,6,0,0.00
2013-2-16,23,16,7,19,10,2,92,77,51,0.00,40.00,9,3,0,0.00
2013-2-17,20,10,2,10,5,-2,83,78,64,0.00,40.00,5,2,0,0.00
2013-2-18,38,23,14,28,14,7,73,67,59,0.00,40.00,10,8,0,0.00
2013-2-19,39,28,16,37,26,13,93,91,89,0.00,40.00,16,11,0,0.00
2013-2-20,21,16,15,16,13,11,91,85,79,0.00,40.00,18,16,0,0.00
2013-2-21,23,19,15,16,12,10,83,76,64,0.00,40.00,13,3,0,0.00
2013-2-22,28,24,18,24,20,10,93,84,68,0.00,40.00,7,5,0,0.00
2013-2-23,30,28,26,28,26,24,94,92,91,0.00,40.00,4,2,0,0.00
2013-2-24,36,32,27,27,26,24,97,79,64,0.00,40.00,6,2,0,0.00
2013-2-25,36,31,26,26,24,22,85,78,59,0.00,40.00,4,1,0,0.00
2013-2-26,34,30,26,24,22,19,75,71,62,0.00,40.00,9,4,0,0.00
2013-2-27,37,34,32,30,29,27,90,81,72,0.00,40.00,6,5,0,0.00
2013-2-28,32,31,28,31,25,17,94,78,63,0.00,40.00,12,8,0,0.00
2013-3-1,26,23,18,15,13,11,77,66,57,0.00,40.00,11,5,0,0.00
2013-3-2,25,18,9,17,12,5,84,75,68,0.00,40.00,12,4,0,0.00
2013-3-3,26,21,16,16,13,11,83,73,63,0.00,40.00,9,5,0,0.00
2013-3-4,31,24,15,18,14,7,88,69,55,0.00,40.00,7,4,0,0.00
2013-3-5,40,22,7,21,13,4,88,70,43,0.00,40.00,5,2,0,0.00
2013-3-6,38,32,25,29,26,20,92,78,64,0.00,40.00,11,5,0,0.00
2013-3-7,31,27,25,25,20,17,88,73,56,0.00,40.00,13,5,0,0.00
2013-3-8,43,25,10,24,17,8,93,75,40,0.00,40.00,7,1,0,0.00
2013-3-9,43,33,23,32,22,18,93,67,44,0.00,40.00,8,4,0,0.00
2013-3-10,41,37,35,39,36,33,97,94,84,0.00,40.00,8,3,0,0.02
2013-3-11,50,41,33,43,39,33,97,93,74,0.00,40.00,7,3,0,0.01
2013-3-12,32,28,26,31,24,21,98,87,76,0.00,40.00,5,0,0,0.00
2013-3-13,29,24,20,21,16,12,94,72,50,0.00,40.00,0,0,0,0.00
2013-3-14,39,30,25,18,17,15,70,58,40,0.00,40.00,11,5,0,0.00
2013-3-15,33,30,25,31,22,13,95,71,58,0.00,40.00,15,9,0,0.00
2013-3-16,30,22,14,17,14,9,92,70,52,0.00,40.00,8,4,0,0.01
2013-3-17,31,22,17,20,10,5,92,60,35,0.00,40.00,17,6,0,0.00
2013-3-18,38,28,15,29,18,8,97,68,38,0.00,40.00,10,7,0,0.00
2013-3-19,30,25,21,29,21,17,96,84,67,0.00,40.00,13,9,0,0.00
2013-3-20,26,23,20,19,14,11,90,68,54,0.00,40.00,12,9,0,0.00
2013-3-21,29,26,22,23,20,17,94,77,66,0.00,40.00,14,12,0,0.00
2013-3-22,32,28,24,25,21,17,84,77,69,0.00,40.00,11,7,0,0.00
2013-3-23,36,30,26,26,24,21,84,76,59,0.00,40.00,8,4,0,0.00
2013-3-24,38,32,27,26,22,17,85,67,42,0.00,40.00,5,3,0,0.00
2013-3-25,36,32,25,29,24,17,80,72,60,0.00,40.00,15,6,0,0.00
2013-3-26,41,35,33,30,28,24,88,74,52,0.00,40.00,10,8,0,0.00
2013-3-27,41,36,32,28,27,25,84,68,55,0.00,40.00,11,8,0,0.00
2013-3-28,45,36,29,26,24,22,79,63,42,0.00,40.00,8,4,0,0.00
2013-3-29,47,35,22,26,20,17,93,60,31,0.00,40.00,6,2,0,0.00
2013-3-30,49,38,25,36,16,-100,79,51,27,0.00,40.00,5,3,0,0.00
2013-3-31,43,39,30,40,34,21,97,85,67,0.00,40.00,17,8,0,0.00
2013-4-1,29,26,24,21,16,11,86,63,51,0.00,40.00,17,12,0,0.00
2013-4-2,33,28,23,17,15,11,70,56,43,0.00,40.00,13,9,0,0.00
2013-4-3,35,30,26,20,17,13,77,57,47,0.00,40.00,12,7,0,0.00
2013-4-4,49,37,25,34,19,7,90,49,33,0.00,40.00,14,7,0,0.00
2013-4-5,36,33,28,30,20,17,76,58,47,0.00,40.00,13,9,0,0.00
2013-4-6,46,33,27,28,23,17,86,66,49,0.00,40.00,10,5,0,0.00
2013-4-7,50,40,32,46,34,28,95,79,47,0.00,40.00,11,8,0,0.00
2013-4-8,40,36,30,38,33,27,96,87,74,0.00,40.00,7,4,0,0.01
2013-4-9,41,38,36,38,36,34,97,94,85,0.00,40.00,9,3,0,0.01
2013-4-10,41,36,32,33,32,29,98,85,69,0.00,40.00,6,3,0,0.00
2013-4-11,35,33,31,30,25,22,90,73,58,0.00,40.00,11,6,0,0.00
2013-4-12,37,32,30,34,30,28,97,92,87,0.00,40.00,3,2,0,0.00
2013-4-13,36,34,31,32,29,25,95,82,65,0.00,40.00,9,6,0,0.00
2013-4-14,43,37,27,30,27,24,96,69,49,0.00,40.00,9,3,0,0.00
2013-4-15,51,43,38,50,37,29,96,78,66,0.00,40.00,10,7,0,0.00
2013-4-16,47,42,34,42,31,29,91,68,50,0.00,40.00,10,6,0,0.00
2013-4-17,49,39,27,35,30,26,96,72,48,0.00,40.00,9,3,0,0.00
2013-4-18,50,42,37,49,41,34,97,93,87,0.00,40.00,7,4,0,0.02
2013-4-19,56,39,31,54,31,19,94,72,56,0.00,40.00,17,13,0,0.01
2013-4-20,33,28,25,21,18,17,83,66,50,0.00,40.00,14,9,0,0.00
2013-4-21,47,32,20,25,18,14,90,63,27,0.00,40.00,9,3,0,0.00
2013-4-22,65,48,36,33,29,26,84,50,28,0.00,40.00,9,6,0,0.00
2013-4-23,59,45,32,45,36,30,97,71,51,0.00,40.00,10,7,0,0.01
2013-4-24,45,37,33,31,27,20,91,70,36,0.00,40.00,12,8,0,0.00
2013-4-25,47,40,36,34,28,24,85,63,43,0.00,40.00,10,8,0,0.00
2013-4-26,63,48,34,39,30,25,76,53,30,0.00,40.00,12,7,0,0.00
2013-4-27,71,59,50,47,40,-100,76,56,30,0.00,40.00,10,6,0,0.00
2013-4-28,70,55,41,41,39,37,88,58,32,0.00,40.00,8,2,0,0.01
2013-4-29,66,54,47,55,49,45,95,82,59,0.00,40.00,5,3,0,0.02
2013-4-30,75,67,55,59,56,51,92,69,53,0.00,40.00,15,9,0,0.10
2013-5-1,76,67,45,59,55,38,77,66,54,0.00,40.00,13,8,0,0.00
2013-5-2,56,45,38,43,38,35,92,76,60,0.00,40.00,14,9,0,0.00
2013-5-3,56,48,38,44,40,35,89,74,62,0.00,40.00,8,4,0,0.00
2013-5-4,77,57,38,48,41,37,96,63,29,0.00,40.00,12,3,0,0.00
2013-5-5,76,61,49,41,37,31,73,42,28,0.00,40.00,11,4,0,0.00
2013-5-6,73,56,40,44,39,36,89,57,26,0.00,40.00,13,4,0,0.00
2013-5-7,74,59,41,42,38,34,87,51,26,0.00,40.00,11,3,0,0.00
2013-5-8,75,60,50,46,40,34,75,49,23,0.00,40.00,10,2,0,0.00
2013-5-9,70,52,42,46,42,40,90,70,33,0.00,40.00,13,4,0,0.01
2013-5-10,46,41,40,45,36,-100,96,91,84,0.00,40.00,7,4,0,0.36
2013-5-11,47,40,32,43,37,31,97,89,68,0.00,40.00,14,4,0,0.14
2013-5-12,39,37,35,32,28,25,87,71,60,0.00,40.00,18,15,0,0.00
2013-5-13,50,40,29,27,25,22,85,57,34,0.00,40.00,9,5,0,0.00
2013-5-14,68,54,42,44,35,26,63,50,37,0.00,40.00,9,5,0,0.00
2013-5-15,71,61,54,48,44,38,70,55,32,0.00,40.00,11,7,0,0.00
2013-5-16,62,50,43,43,21,-100,87,57,38,0.00,40.00,9,4,0,0.00
2013-5-17,63,49,37,47,32,-100,96,72,45,0.00,40.00,3,2,0,0.00
2013-5-18,72,58,52,46,44,41,79,60,39,0.00,40.00,6,3,0,0.00
2013-5-19,82,67,57,60,51,43,78,56,45,0.00,40.00,8,3,0,0.00
2013-5-20,80,66,55,68,61,52,94,82,64,0.00,40.00,6,2,0,0.00
2013-5-21,80,67,56,64,60,55,96,81,47,0.00,40.00,6,3,0,0.04
2013-5-22,59,55,52,58,54,52,97,96,95,0.00,40.00,5,2,0,0.30
2013-5-23,51,45,41,50,40,34,97,83,62,0.00,40.00,17,11,0,0.32
2013-5-24,52,44,35,35,33,29,92,66,47,0.00,40.00,12,6,0,0.00
2013-5-25,60,41,31,39,34,31,98,80,39,0.00,40.00,11,2,0,0.00
2013-5-26,65,46,32,38,34,32,97,70,29,0.00,40.00,11,3,0,0.00
2013-5-27,72,56,40,40,36,31,85,52,22,0.00,40.00,6,2,0,0.00
2013-5-28,62,58,54,61,51,40,96,81,47,0.00,40.00,5,2,0,0.16
2013-5-29,73,62,54,63,58,53,97,88,70,0.00,40.00,4,2,0,0.00
2013-5-30,89,75,62,66,63,60,92,69,41,0.00,40.00,8,4,0,0.42
2013-5-31,81,73,68,66,63,61,95,73,52,0.00,40.00,9,6,0,0.29
2013-6-1,76,69,60,65,60,-100,93,79,63,0.00,40.00,7,4,0,0.26
2013-6-2,60,49,43,57,45,37,95,85,67,0.00,40.00,14,7,0,0.04
2013-6-3,61,48,34,40,37,33,96,70,43,0.00,40.00,10,4,0,0.00
2013-6-4,64,49,35,47,39,34,97,72,37,0.00,40.00,9,2,0,0.02
2013-6-5,62,54,48,54,49,45,93,81,55,0.00,40.00,4,2,0,0.08
2013-6-6,70,59,53,47,44,40,72,56,41,0.00,40.00,10,4,0,0.00
2013-6-7,68,58,45,47,44,40,96,63,39,0.00,40.00,11,4,0,0.00
2013-6-8,70,56,43,52,46,39,96,73,36,0.00,40.00,6,2,0,0.00
2013-6-9,77,60,45,56,51,44,97,73,47,0.00,40.00,6,3,0,0.00
2013-6-10,70,66,60,63,57,50,93,74,58,0.00,40.00,6,4,0,0.05
2013-6-11,78,65,56,64,59,55,96,83,58,0.00,40.00,8,2,0,0.00
2013-6-12,79,64,53,61,55,50,97,76,40,0.00,40.00,7,2,0,0.00
2013-6-13,66,59,54,54,52,50,87,76,64,0.00,40.00,13,7,0,0.00
2013-6-14,68,56,45,49,43,31,96,68,25,0.00,40.00,9,3,0,0.00
2013-6-15,72,60,42,61,50,40,94,72,47,0.00,40.00,3,1,0,0.08
2013-6-16,77,67,59,63,59,52,97,78,47,0.00,40.00,6,3,0,0.70
2013-6-17,66,61,56,57,54,52,93,79,69,0.00,40.00,10,4,0,0.00
2013-6-18,68,60,50,54,48,40,95,68,38,0.00,40.00,12,5,0,0.00
2013-6-19,75,60,44,50,45,42,97,65,32,0.00,40.00,10,2,0,0.00
2013-6-20,82,60,50,51,48,45,92,69,33,0.00,40.00,5,2,0,0.00
2013-6-22,75,67,61,64,61,59,94,80,68,0.00,40.00,9,3,0,0.00
2013-6-23,85,68,61,69,64,60,95,88,58,0.00,40.00,6,2,0,0.00
2013-6-25,79,76,72,66,64,64,81,67,60,0.00,40.00,5,4,0,0.00
2013-6-26,87,72,60,66,64,59,97,78,48,0.00,40.00,8,2,0,0.00
2013-6-27,81,71,64,65,63,62,95,78,55,0.00,40.00,7,2,0,0.00
2013-6-28,76,67,56,62,60,55,97,79,59,0.00,40.00,13,4,0,0.00
2013-6-29,73,68,63,61,58,55,91,73,57,0.00,40.00,9,4,0,0.00
2013-6-30,77,66,53,57,51,42,96,64,30,0.00,40.00,12,4,0,0.00
2013-7-1,81,64,47,55,50,45,97,65,36,0.00,40.00,8,2,0,0.00
2013-7-2,74,62,45,54,48,43,92,61,43,0.00,40.00,8,2,0,0.00
2013-7-3,76,66,52,59,54,50,92,67,45,0.00,40.00,7,1,0,0.11
2013-7-4,77,66,61,62,61,58,96,84,55,0.00,40.00,5,2,0,0.01
2013-7-5,86,75,61,65,60,56,94,62,35,0.00,40.00,5,3,0,0.00
2013-7-6,87,71,63,64,60,56,86,68,36,0.00,40.00,6,2,0,0.00
2013-7-7,87,71,63,67,63,60,93,78,41,0.00,40.00,5,1,0,0.00
2013-7-8,77,71,68,71,67,65,96,89,77,0.00,40.00,5,2,0,0.74
2013-7-9,80,72,67,71,68,66,97,88,69,0.00,40.00,4,2,0,0.00
2013-7-10,72,69,61,70,61,56,93,76,63,0.00,40.00,10,6,0,0.00
2013-7-11,72,64,56,59,55,53,95,74,51,0.00,40.00,12,5,0,0.00
2013-7-12,82,67,52,59,53,49,97,66,30,0.00,40.00,6,2,0,0.00
2013-7-13,86,69,57,62,59,56,96,74,38,0.00,40.00,6,2,0,0.00
2013-7-14,89,76,60,65,62,57,94,66,40,0.00,40.00,8,2,0,0.00
2013-7-15,91,75,62,68,63,59,97,72,34,0.00,40.00,6,2,0,0.00
2013-7-16,91,78,65,71,67,64,96,72,47,0.00,40.00,5,2,0,0.00
2013-7-17,92,82,76,72,70,66,86,69,41,0.00,40.00,6,4,0,0.00
2013-7-18,91,86,74,74,70,66,90,61,45,0.00,40.00,9,4,0,0.00
2013-7-19,86,81,73,71,68,62,79,66,55,0.00,40.00,10,7,0,0.11
2013-7-20,72,65,59,61,51,-100,93,67,43,0.00,40.00,12,5,0,0.00
2013-7-21,75,64,48,58,48,40,95,61,28,0.00,40.00,6,2,0,0.00
2013-7-22,87,75,62,63,60,56,88,63,42,0.00,40.00,7,4,0,0.00
2013-7-23,75,64,59,65,54,45,93,69,60,0.00,40.00,14,9,0,0.36
2013-7-24,70,62,49,52,47,45,94,62,43,0.00,40.00,8,3,0,0.00
2013-7-25,79,64,47,54,50,46,96,66,38,0.00,40.00,5,2,0,0.00
2013-7-26,76,66,58,62,57,49,92,71,53,0.00,40.00,8,5,0,0.11
2013-7-27,62,58,54,61,56,53,94,91,83,0.00,40.00,8,4,0,0.01
2013-7-28,63,56,52,55,52,50,96,86,65,0.00,40.00,6,2,0,0.22
2013-7-29,68,59,54,56,54,53,96,87,60,0.00,40.00,7,3,0,0.05
2013-7-30,75,62,51,61,55,50,97,81,54,0.00,40.00,3,0,0,0.00
2013-7-31,77,67,60,62,60,57,95,79,58,0.00,40.00,4,2,0,0.19
2013-8-1,74,65,57,62,57,53,97,76,49,0.00,40.00,8,3,0,0.00
2013-8-2,73,64,57,60,56,55,91,76,56,0.00,40.00,8,3,0,0.00
2013-8-3,69,61,53,57,54,51,97,78,58,0.00,40.00,9,4,0,0.00
2013-8-4,71,64,51,55,49,43,90,60,40,0.00,40.00,8,5,0,0.00
2013-8-5,70,58,46,55,49,45,97,75,44,0.00,40.00,3,1,0,0.00
2013-8-6,77,68,58,63,59,53,91,73,60,0.00,40.00,5,3,0,0.00
2013-8-7,75,68,63,66,62,59,94,83,60,0.00,40.00,9,4,0,0.15
2013-8-8,75,63,50,56,52,49,97,71,43,0.00,40.00,6,2,0,0.00
2013-8-9,77,62,48,57,52,47,97,73,45,0.00,40.00,11,4,0,0.00
2013-8-10,73,61,48,53,50,47,97,71,45,0.00,40.00,8,2,0,0.00
2013-8-11,75,65,50,60,55,48,96,72,46,0.00,40.00,4,2,0,0.00
2013-8-12,76,62,52,62,55,51,97,81,47,0.00,40.00,10,3,0,0.03
2013-8-13,65,58,55,50,43,-100,74,61,44,0.00,40.00,12,9,0,0.00
2013-8-14,68,60,49,53,48,43,95,65,41,0.00,40.00,9,4,0,0.00
2013-8-15,75,55,49,55,37,-100,91,64,33,0.00,40.00,6,2,0,0.00
2013-8-16,81,61,49,61,48,-100,97,73,32,0.00,40.00,7,2,0,0.00
2013-8-17,83,64,50,58,49,-100,97,66,30,0.00,40.00,7,2,0,0.00
2013-8-18,83,68,52,56,52,46,92,61,28,0.00,40.00,7,3,0,0.00
2013-8-19,83,64,53,61,47,-100,93,65,38,0.00,40.00,6,2,0,0.00
2013-8-20,86,76,66,61,60,58,82,59,40,0.00,40.00,7,4,0,0.00
2013-8-21,90,78,69,65,63,60,80,62,41,0.00,40.00,10,5,0,0.31
2013-8-22,76,70,63,67,62,53,96,78,45,0.00,40.00,8,3,0,0.06
2013-8-23,78,65,49,60,56,48,97,75,48,0.00,40.00,9,3,0,0.00
2013-8-24,83,68,53,58,52,-100,96,63,35,0.00,40.00,8,3,0,0.00
2013-8-25,90,72,59,65,58,54,86,62,41,0.00,40.00,10,5,0,0.00
2013-8-26,87,78,68,69,66,63,93,67,48,0.00,40.00,9,5,0,0.06
2013-8-27,71,69,66,68,67,65,96,93,89,0.00,40.00,5,1,0,0.29
2013-8-28,80,76,67,71,68,65,93,76,67,0.00,40.00,8,5,0,0.00
2013-8-29,89,74,61,70,65,61,97,78,47,0.00,40.00,5,2,0,0.00
2013-8-30,76,72,70,70,67,64,93,83,73,0.00,40.00,8,4,0,0.01
2013-8-31,77,69,64,65,63,62,96,83,59,0.00,40.00,6,2,0,0.00
2013-9-1,79,65,61,66,62,60,97,89,61,0.00,40.00,10,2,0,0.12
2013-9-2,63,58,56,60,53,49,88,82,69,0.00,40.00,11,9,0,0.00
2013-9-3,71,65,56,55,52,49,80,63,50,0.00,40.00,11,6,0,0.00
2013-9-4,67,61,55,60,54,47,92,79,56,0.00,40.00,9,4,0,0.00
2013-9-5,64,55,45,48,44,39,94,69,43,0.00,40.00,7,2,0,0.00
2013-9-6,78,59,42,58,49,41,95,72,49,0.00,40.00,6,2,0,0.00
2013-9-7,76,70,69,68,60,-100,90,74,58,0.00,40.00,7,4,0,0.00
2013-9-8,73,64,57,63,55,48,93,73,41,0.00,40.00,6,3,0,0.00
2013-9-9,76,66,57,69,58,49,90,77,69,0.00,40.00,5,3,0,0.00
2013-9-10,89,80,74,71,68,67,86,67,50,0.00,40.00,8,5,0,0.00
2013-9-11,77,73,69,67,65,63,89,77,64,0.00,40.00,6,5,0,0.00
2013-9-12,68,63,54,64,55,45,89,76,62,0.00,40.00,13,8,0,0.02
2013-9-13,57,51,42,48,44,40,95,77,54,0.00,40.00,10,5,0,0.26
2013-9-14,66,51,38,49,40,-100,97,73,47,0.00,40.00,6,2,0,0.00
2013-9-15,59,57,54,56,52,49,93,82,74,0.00,40.00,6,3,0,0.01
2013-9-16,57,51,45,46,42,39,84,71,58,0.00,40.00,6,4,0,0.00
2013-9-17,68,56,40,44,41,38,92,61,33,0.00,40.00,5,3,0,0.00
2013-9-18,51,49,45,47,45,43,92,86,80,0.00,40.00,2,1,0,0.00
2013-9-19,79,70,62,68,64,54,96,82,62,0.00,40.00,7,4,0,0.49
2013-9-20,71,68,64,67,64,59,94,88,78,0.00,40.00,6,4,0,0.04
2013-9-21,63,55,49,58,47,-100,93,79,68,0.00,40.00,12,7,0,0.11
2013-9-22,52,49,47,43,40,37,82,71,65,0.00,40.00,9,4,0,0.00
2013-9-23,63,49,36,47,41,36,97,77,50,0.00,40.00,5,2,0,0.00
2013-9-24,67,54,43,52,47,41,94,76,54,0.00,40.00,6,3,0,0.00
2013-9-25,73,53,41,54,46,40,97,82,48,0.00,40.00,4,1,0,0.00
2013-9-26,74,56,43,53,47,42,97,77,35,0.00,40.00,6,1,0,0.01
2013-9-27,79,61,46,53,49,44,96,68,34,0.00,40.00,5,2,0,0.00
2013-9-28,77,63,54,56,51,-100,91,68,44,0.00,40.00,8,5,0,0.00
2013-9-29,69,61,47,58,50,45,96,70,44,0.00,40.00,9,4,0,0.05
2013-9-30,70,51,40,51,45,39,97,83,43,0.00,40.00,4,1,0,0.01
2013-10-1,67,66,66,61,61,61,85,83,81,0.00,40.00,6,5,0,0.00
2013-10-2,72,61,49,60,46,37,90,63,28,0.00,40.00,7,2,0,0.00
2013-10-3,73,58,48,62,51,40,97,78,60,0.00,40.00,9,2,0,0.31
2013-10-4,63,60,57,61,59,55,97,95,91,0.00,40.00,5,2,0,0.06
2013-10-5,65,60,56,59,57,55,96,89,80,0.00,40.00,8,5,0,1.05
2013-10-6,67,59,49,65,57,48,97,92,83,0.00,40.00,7,4,0,0.14
2013-10-7,58,52,46,49,46,44,96,80,59,0.00,40.00,11,5,0,0.34
2013-10-8,71,52,40,47,43,39,96,75,39,0.00,40.00,7,2,0,0.00
2013-10-9,74,64,50,52,49,45,94,60,39,0.00,40.00,6,3,0,0.00
2013-10-10,75,56,44,54,47,43,96,75,39,0.00,40.00,4,1,0,0.00
2013-10-11,72,55,44,49,45,42,97,73,36,0.00,40.00,5,1,0,0.00
2013-10-12,78,62,51,60,48,-100,91,63,38,0.00,40.00,8,5,0,0.06
2013-10-13,61,54,48,57,47,44,88,76,67,0.00,40.00,7,4,0,0.01
2013-10-14,60,49,36,43,40,36,97,72,46,0.00,40.00,6,2,0,0.00
2013-10-15,60,52,42,56,48,39,94,86,68,0.00,40.00,7,4,0,0.17
2013-10-16,56,52,50,55,48,42,96,88,73,0.00,40.00,8,5,0,0.00
2013-10-17,50,48,44,45,41,37,94,79,63,0.00,40.00,4,2,0,0.06
2013-10-18,57,45,37,45,42,36,96,86,63,0.00,40.00,7,2,0,0.08
2013-10-19,51,45,40,46,36,-100,97,77,50,0.00,40.00,8,3,0,0.16
2013-10-20,52,44,36,43,37,33,96,78,49,0.00,40.00,6,3,0,0.21
2013-10-21,49,44,38,46,38,26,95,80,61,0.00,40.00,10,7,0,0.04
2013-10-22,45,39,32,36,34,28,97,81,65,0.00,40.00,11,7,0,0.42
2013-10-23,42,35,32,35,32,29,98,89,60,0.00,40.00,8,3,0,0.32
2013-10-24,44,40,36,36,31,27,92,70,56,0.00,40.00,11,7,0,0.05
2013-10-25,45,40,35,35,32,26,94,73,52,0.00,40.00,9,6,0,0.10
2013-10-26,47,45,41,41,35,31,86,68,59,0.00,40.00,16,11,0,0.01
2013-10-27,48,43,39,35,32,30,74,63,50,0.00,40.00,10,6,0,0.00
2013-10-28,46,40,33,37,27,-100,76,65,37,0.00,40.00,10,5,0,0.00
2013-10-29,42,35,27,32,27,23,91,72,49,0.00,40.00,5,2,0,0.00
2013-10-30,61,48,38,44,39,34,90,72,44,0.00,40.00,4,2,0,0.01
2013-10-31,61,55,52,59,53,47,97,93,82,0.00,40.00,5,3,0,0.77
2013-11-1,55,48,43,54,46,41,97,91,82,0.00,40.00,11,6,0,0.53
2013-11-2,42,40,36,40,33,-100,93,80,64,0.00,40.00,6,3,0,0.00
2013-11-3,45,40,36,31,30,28,73,66,57,0.00,40.00,6,5,0,0.00
2013-11-4,48,43,35,32,29,25,81,60,42,0.00,40.00,10,8,0,0.00
2013-11-5,58,52,46,48,43,31,89,73,54,0.00,40.00,8,4,0,0.01
2013-11-6,52,47,39,51,44,32,95,89,74,0.00,40.00,13,8,0,0.69
2013-11-7,39,37,34,32,29,27,94,73,65,0.00,40.00,8,6,0,0.07
2013-11-8,41,37,32,31,27,23,90,67,49,0.00,40.00,9,5,0,0.03
2013-11-9,47,41,37,42,32,-100,91,76,61,0.00,40.00,13,9,0,0.12
2013-11-10,43,40,37,35,31,28,85,70,59,0.00,40.00,13,9,0,0.02
2013-11-11,39,35,30,35,31,23,95,84,72,0.00,40.00,12,9,0,0.10
2013-11-12,29,28,27,20,18,16,69,65,58,0.00,40.00,13,9,0,0.00
2013-11-13,35,26,20,22,19,17,87,76,58,0.00,40.00,9,4,0,0.00
2013-11-14,46,43,41,32,31,30,66,60,54,0.00,40.00,9,8,0,0.00
2013-11-15,50,45,41,35,33,32,72,64,57,0.00,40.00,9,4,0,0.00
2013-11-16,54,44,37,49,39,32,88,82,77,0.00,40.00,10,6,0,0.00
2013-11-17,61,56,49,58,54,48,97,92,87,0.00,40.00,11,7,0,0.23
2013-11-18,45,39,33,41,33,29,85,78,70,0.00,40.00,15,14,0,0.00
2013-11-19,36,33,31,23,23,23,72,67,58,0.00,40.00,2,1,0,0.00
2013-11-20,44,35,32,26,24,22,70,62,43,0.00,40.00,10,8,0,0.00
2013-11-21,43,39,35,38,33,26,91,78,60,0.00,40.00,5,3,0,0.00
2013-11-22,39,34,31,38,30,24,94,85,70,0.00,40.00,11,9,0,0.02
2013-11-23,31,22,18,25,15,8,89,72,61,0.00,40.00,18,15,0,0.00
2013-11-24,21,19,18,14,11,10,82,69,61,0.00,40.00,14,9,0,0.00
2013-11-25,31,29,27,27,22,16,94,78,58,0.00,40.00,11,11,0,0.00
2013-11-26,33,29,23,30,26,20,93,88,85,0.00,40.00,14,8,0,0.00
2013-11-27,23,22,21,19,16,14,87,75,66,0.00,40.00,12,9,0,0.00
2013-11-28,23,19,14,20,15,12,90,84,69,0.00,40.00,6,3,0,0.00
2013-11-29,28,21,10,22,16,7,90,83,73,0.00,40.00,5,3,0,0.00
2013-11-30,38,31,24,33,25,18,85,78,73,0.00,40.00,9,6,0,0.06
2013-12-1,36,34,33,32,30,28,91,84,73,0.00,40.00,3,2,0,0.00
2013-12-2,36,33,31,27,26,24,85,76,60,0.00,40.00,4,2,0,0.00
2013-12-3,32,29,28,28,24,21,93,77,69,0.00,40.00,6,5,0,0.00
2013-12-4,42,35,30,40,34,30,98,95,91,0.00,40.00,10,5,0,0.01
2013-12-5,48,36,25,44,29,16,93,75,64,0.00,40.00,14,12,0,0.00
2013-12-6,21,20,19,13,12,10,78,72,66,0.00,40.00,10,8,0,0.00
2013-12-7,19,17,16,12,8,5,77,68,61,0.00,40.00,8,7,0,0.00
2013-12-8,19,17,14,15,10,7,87,74,64,0.00,40.00,7,4,0,0.00
2013-12-9,27,22,15,25,19,8,95,88,72,0.00,40.00,15,6,0,0.00
2013-12-10,17,12,9,9,6,4,82,77,70,0.00,40.00,10,7,0,0.00
2013-12-11,14,13,11,9,8,8,89,81,74,0.00,40.00,11,10,0,0.00
2013-12-12,18,16,15,12,10,7,87,78,72,0.00,40.00,9,8,0,0.00
2013-12-13,20,17,11,10,7,2,72,64,52,0.00,40.00,12,7,0,0.00
2013-12-14,19,14,9,16,8,0,88,77,67,0.00,40.00,6,5,0,0.00
2013-12-15,19,18,16,16,15,13,93,88,77,0.00,40.00,10,7,0,0.00
2013-12-16,17,13,8,13,9,5,90,83,65,0.00,40.00,8,4,0,0.00
2013-12-17,25,21,15,20,17,11,92,85,79,0.00,40.00,9,5,0,0.00
2013-12-18,26,24,22,19,17,16,77,73,71,0.00,40.00,10,6,0,0.00
2013-12-19,31,28,22,26,22,16,84,80,77,0.00,40.00,8,4,0,0.00
2013-12-20,25,23,20,24,21,19,95,92,82,0.00,40.00,5,3,0,0.00
2013-12-21,29,26,24,25,24,22,97,90,83,0.00,40.00,4,2,0,0.00
2013-12-22,25,22,18,22,20,16,95,92,84,0.00,40.00,5,4,0,0.00
2013-12-23,19,15,13,15,13,11,92,90,83,0.00,40.00,3,1,0,0.00
2013-12-24,15,11,5,9,5,1,86,76,64,0.00,40.00,2,2,0,0.00
2013-12-25,22,17,10,20,14,6,90,87,85,0.00,40.00,11,7,0,0.00
2013-12-26,23,22,19,20,17,14,94,84,68,0.00,40.00,6,4,0,0.00
2013-12-27,32,24,18,27,19,13,84,80,76,0.00,40.00,7,4,0,0.00
2013-12-28,43,37,34,33,31,30,82,76,66,0.00,40.00,9,4,0,0.05
2013-12-29,38,24,14,32,20,7,93,82,71,0.00,40.00,14,10,0,0.00
2013-12-30,14,12,11,8,5,3,77,72,66,0.00,40.00,10,6,0,0.00
2013-12-31,10,10,9,6,4,0,84,75,63,0.00,40.00,11,8,0,0.00
2014-1-1,11,10,9,3,2,0,73,68,59,0.00,40.00,8,5,0,0.00
2014-1-2,14,7,5,0,-1,-2,76,68,50,0.00,40.00,5,3,0,0.00